Total_Precipitation_Accumulation
0.11 0.31 0.60 0.97 1.75 1.90 1.30 0.78 0.59 0.50 0.50 0.46 0.44 0.44 0.59 0.91 1.31 1.91 1.36 0.95 1.04 1.22 1.45 1.83 2.01 1.81 1.71 1.61 1.71 1.76 1.65 1.52 1.43 1.41 1.39 1.33 1.25 1.10 0.94 0.86 0.86 0.90 0.86 0.76 0.84 0.87 0.82 0.90 1.01
0.26 0.48 0.71 1.22 1.79 1.39 0.99 0.71 0.58 0.41 0.39 0.44 0.57 0.63 0.58 0.72 0.70 0.87 1.10 1.08 0.92 1.08 1.37 1.45 1.77 1.70 1.62 1.55 1.61 1.59 1.50 1.34 1.32 1.26 1.21 1.16 1.16 1.04 0.85 0.79 0.81 0.84 0.80 0.79 0.88 0.90 0.87 0.87 0.96
0.38 0.55 0.85 1.33 1.21 0.76 0.62 0.50 0.41 0.38 0.43 0.54 0.66 0.71 0.73 0.82 0.75 0.96 1.13 0.97 0.93 1.02 1.28 1.55 1.68 1.53 1.47 1.40 1.41 1.40 1.38 1.32 1.28 1.19 1.16 1.07 1.03 0.97 0.84 0.79 0.80 0.82 0.83 0.80 0.85 0.95 0.95 0.93 0.96
0.47 0.68 0.84 0.95 0.64 0.34 0.26 0.28 0.30 0.41 0.59 0.80 0.86 0.91 0.88 0.80 0.83 0.99 1.09 0.90 0.86 0.85 0.98 1.31 1.45 1.35 1.38 1.30 1.23 1.28 1.33 1.36 1.28 1.16 1.08 1.05 1.04 1.02 0.88 0.78 0.78 0.85 0.88 0.88 0.90 1.02 1.04 0.95 0.95
0.44 0.75 1.00 0.76 0.39 0.28 0.22 0.22 0.32 0.47 0.67 0.82 0.91 1.11 1.26 1.07 0.91 1.00 0.93 0.88 0.80 0.80 0.89 1.12 1.37 1.28 1.26 1.22 1.19 1.24 1.31 1.34 1.20 1.08 0.98 1.00 1.03 0.96 0.85 0.82 0.82 0.81 0.85 0.90 0.97 1.03 1.03 1.01 1.06
0.55 0.83 0.82 0.56 0.31 0.22 0.23 0.26 0.32 0.45 0.64 0.82 1.15 1.37 1.53 1.40 1.22 1.11 0.95 1.07 0.95 0.81 0.82 1.04 1.33 1.30 1.24 1.23 1.24 1.31 1.34 1.22 1.09 1.00 0.93 0.93 0.95 0.93 0.89 0.90 0.90 0.83 0.86 0.95 1.00 1.01 0.96 1.00 1.14
0.49 0.63 0.50 0.35 0.28 0.22 0.22 0.26 0.33 0.49 0.65 0.92 1.26 1.49 1.54 1.53 1.38 1.21 1.12 1.21 1.28 1.10 1.06 1.07 1.14 1.19 1.24 1.39 1.46 1.47 1.38 1.15 1.06 1.02 0.96 0.90 0.87 0.87 0.87 0.96 0.98 0.90 0.92 0.99 1.06 1.04 1.04 1.09 1.20
0.31 0.43 0.34 0.22 0.26 0.25 0.21 0.24 0.36 0.58 0.78 1.01 1.23 1.43 1.66 1.47 1.29 1.37 1.62 1.79 1.90 1.77 1.64 1.42 1.27 1.35 1.26 1.33 1.50 1.57 1.30 1.08 1.04 1.06 1.02 1.00 1.04 1.03 1.11 1.08 1.05 1.09 1.16 1.20 1.28 1.23 1.19 1.28 1.36
0.24 0.39 0.28 0.13 0.15 0.21 0.20 0.24 0.33 0.42 0.65 0.91 1.13 1.25 1.23 1.21 1.36 1.66 2.11 2.22 2.10 2.19 2.02 1.80 1.63 1.46 1.44 1.40 1.43 1.67 1.43 1.22 1.30 1.46 1.41 1.45 1.76 1.67 1.74 1.42 1.36 1.48 1.66 1.71 1.75 1.74 1.64 1.56 1.50
0.20 0.28 0.15 0.07 0.04 0.08 0.15 0.23 0.32 0.45 0.89 1.51 1.52 1.22 1.04 1.25 1.53 1.79 2.12 2.41 2.11 2.24 2.00 1.92 1.90 1.61 1.49 1.56 1.92 2.30 1.92 1.79 1.83 2.05 1.92 2.22 2.32 2.21 1.63 1.67 1.91 2.04 2.37 2.50 2.53 2.56 2.27 1.95 1.81
0.16 0.14 0.09 0.04 0.03 0.03 0.07 0.16 0.25 0.50 0.99 1.73 1.91 1.49 1.30 1.40 1.78 1.80 2.06 2.29 2.31 2.27 2.17 1.92 2.16 1.86 1.79 2.06 2.22 2.39 2.40 2.28 2.23 2.28 2.27 2.52 2.30 1.99 1.89 2.22 2.61 2.81 2.95 3.12 3.16 3.07 2.58 2.51 2.70
0.10 0.08 0.04 0.03 0.02 0.03 0.11 0.20 0.30 0.40 0.85 1.21 1.19 1.10 1.26 1.48 1.83 2.04 2.10 2.34 2.42 2.30 2.25 2.23 2.34 2.29 2.30 2.34 2.29 2.20 1.98 1.95 2.08 2.25 2.22 2.42 2.51 2.52 2.48 2.66 2.79 3.03 3.40 3.77 3.69 3.65 3.36 3.30 3.08
0.07 0.09 0.09 0.05 0.05 0.06 0.12 0.17 0.29 0.45 0.58 0.71 0.69 0.90 1.34 1.61 2.00 2.34 2.69 2.91 2.97 2.91 2.80 2.83 2.98 2.85 2.68 2.62 2.31 1.95 1.82 1.70 1.75 1.87 2.00 2.00 2.35 2.64 2.67 2.53 2.58 2.52 2.75 3.21 3.76 3.67 3.84 3.78 3.39
0.06 0.06 0.08 0.07 0.06 0.07 0.12 0.17 0.32 0.55 0.56 0.66 0.83 1.09 1.47 1.91 2.28 2.54 3.29 3.70 3.93 3.87 3.72 3.54 3.63 3.21 2.90 2.66 2.31 2.07 1.83 1.87 1.79 1.71 1.70 1.91 2.18 2.44 2.41 2.38 2.59 2.63 2.56 2.72 3.16 3.32 3.71 3.68 3.29
0.11 0.13 0.12 0.10 0.07 0.08 0.14 0.33 0.48 0.61 0.80 0.84 1.02 1.24 1.56 2.15 2.61 3.08 3.62 4.36 4.79 4.97 4.61 4.04 3.78 3.47 3.20 2.93 2.46 2.09 1.94 1.78 1.93 1.92 1.81 1.85 1.95 2.15 2.13 2.23 2.23 2.31 2.21 2.29 2.51 2.73 3.00 2.97 2.83
0.14 0.24 0.30 0.17 0.11 0.11 0.18 0.59 0.74 0.64 0.96 1.29 1.22 1.48 1.87 2.39 2.87 3.55 4.23 5.06 5.60 5.78 5.20 4.50 3.79 3.81 3.68 3.40 2.73 2.22 1.97 1.91 1.90 1.85 1.68 1.56 1.65 1.66 1.76 1.80 1.76 1.77 1.64 1.77 2.11 2.20 2.47 2.69 2.74
0.15 0.23 0.30 0.26 0.15 0.14 0.23 0.65 0.83 0.64 0.86 1.16 1.35 1.59 2.00 2.37 2.71 3.35 4.00 4.80 5.40 5.92 5.73 5.12 4.95 4.72 4.05 3.35 2.74 2.30 2.02 1.97 1.80 1.71 1.61 1.51 1.45 1.44 1.60 1.72 1.77 1.48 1.48 1.58 1.46 1.86 2.12 2.37 2.46
0.13 0.15 0.23 0.32 0.22 0.22 0.30 0.50 0.79 0.84 1.05 1.32 1.43 1.54 1.79 1.99 2.32 2.82 3.33 3.77 4.36 4.86 4.76 4.72 4.85 4.43 3.83 3.20 2.73 2.44 2.15 1.85 1.67 1.64 1.64 1.53 1.49 1.50 1.69 1.55 1.52 1.37 1.60 1.82 1.90 2.19 2.13 2.08 2.15
0.10 0.12 0.19 0.26 0.22 0.28 0.41 0.54 0.78 0.95 1.19 1.40 1.43 1.36 1.42 1.63 1.92 2.21 2.58 2.93 3.14 3.30 3.40 3.72 3.95 3.71 3.25 2.84 2.37 2.18 2.12 1.92 1.68 1.53 1.41 1.50 1.45 1.64 1.83 1.61 1.88 1.66 1.64 1.75 1.80 1.95 1.92 1.78 1.74
0.09 0.11 0.19 0.24 0.20 0.25 0.41 0.69 0.87 0.96 1.00 1.12 1.24 1.16 1.20 1.46 1.51 1.61 1.79 2.12 2.25 2.45 2.75 3.11 3.36 3.21 2.69 2.47 2.29 2.16 2.10 1.94 1.89 1.74 1.65 1.46 1.44 1.54 1.49 1.81 1.68 1.69 1.82 1.85 1.93 2.05 2.04 1.83 1.77
0.09 0.10 0.13 0.18 0.19 0.29 0.43 0.95 1.06 0.95 0.87 0.79 0.94 0.99 0.96 1.10 1.23 1.29 1.27 1.44 1.77 2.27 2.43 2.37 2.61 2.81 2.55 2.45 2.38 2.28 2.20 2.00 2.06 1.98 1.83 1.47 1.32 1.35 1.43 1.49 1.55 1.77 1.61 1.89 2.12 2.06 2.13 2.12 1.94
0.08 0.08 0.08 0.10 0.15 0.42 0.54 1.00 1.10 0.96 0.95 0.77 0.75 0.79 0.73 0.68 0.83 1.00 1.00 1.11 1.32 1.61 1.87 2.09 2.33 2.51 2.45 2.34 2.14 1.99 1.81 1.72 1.73 1.75 1.74 1.60 1.47 1.32 1.33 1.36 1.58 1.77 1.59 2.02 1.72 1.82 2.05 2.19 2.02
0.04 0.04 0.06 0.11 0.19 0.39 0.51 0.88 1.08 0.89 1.02 0.80 0.53 0.42 0.39 0.38 0.48 0.67 0.78 0.89 0.95 1.13 1.52 1.95 2.28 2.52 2.41 2.11 1.95 1.96 1.85 1.81 1.73 1.66 1.85 1.73 1.64 1.45 1.26 1.37 1.56 1.65 1.60 1.77 1.85 2.13 2.01 1.94 1.93
0.03 0.05 0.13 0.23 0.39 0.74 0.71 0.75 1.02 0.79 0.60 0.46 0.36 0.28 0.27 0.30 0.35 0.46 0.55 0.67 0.80 0.93 1.20 1.56 1.87 2.10 2.11 1.97 1.88 1.92 1.94 1.91 1.78 1.60 1.60 1.51 1.51 1.47 1.38 1.45 1.59 1.57 1.54 1.68 1.77 1.92 1.90 1.96 2.02
0.03 0.05 0.22 0.46 0.73 0.91 0.58 0.75 1.09 0.66 0.48 0.37 0.32 0.28 0.25 0.23 0.31 0.43 0.51 0.61 0.67 0.72 0.91 1.20 1.40 1.55 1.75 1.85 1.85 1.81 1.92 1.92 1.73 1.54 1.50 1.51 1.38 1.33 1.36 1.49 1.72 1.66 1.67 1.71 1.88 1.88 1.83 1.90 1.94
0.03 0.04 0.10 0.19 0.33 0.51 0.58 1.19 1.04 0.49 0.34 0.29 0.26 0.26 0.23 0.22 0.26 0.40 0.50 0.54 0.55 0.56 0.73 0.90 1.08 1.30 1.54 1.68 1.73 1.71 1.66 1.55 1.52 1.62 1.52 1.47 1.45 1.41 1.36 1.48 1.54 1.58 1.66 1.68 2.04 1.84 1.73 1.78 1.76
0.03 0.04 0.06 0.08 0.12 0.34 0.67 0.85 0.59 0.32 0.29 0.31 0.28 0.28 0.27 0.29 0.36 0.42 0.53 0.55 0.47 0.49 0.59 0.67 0.87 1.08 1.23 1.42 1.54 1.47 1.50 1.40 1.41 1.48 1.44 1.41 1.53 1.52 1.46 1.41 1.43 1.52 1.67 1.82 1.97 1.86 1.85 1.89 1.70
0.03 0.03 0.04 0.04 0.08 0.24 0.51 0.75 0.78 0.51 0.39 0.34 0.34 0.36 0.34 0.38 0.49 0.52 0.51 0.54 0.48 0.48 0.58 0.66 0.82 0.95 1.02 1.19 1.28 1.20 1.38 1.43 1.55 1.51 1.42 1.37 1.37 1.42 1.48 1.51 1.48 1.56 1.65 1.83 1.96 1.96 2.05 2.09 1.91
0.05 0.04 0.03 0.04 0.05 0.12 0.36 0.54 0.58 0.54 0.49 0.37 0.34 0.39 0.46 0.45 0.56 0.55 0.51 0.54 0.52 0.53 0.59 0.65 0.79 0.90 0.96 1.11 1.18 1.24 1.32 1.38 1.44 1.46 1.46 1.45 1.42 1.45 1.48 1.54 1.58 1.59 1.65 1.82 1.93 1.81 2.02 2.13 2.17
0.07 0.08 0.08 0.07 0.06 0.08 0.17 0.31 0.32 0.37 0.43 0.37 0.37 0.46 0.51 0.39 0.42 0.50 0.53 0.60 0.52 0.55 0.59 0.63 0.73 0.82 0.89 1.08 1.23 1.29 1.42 1.46 1.41 1.41 1.60 1.63 1.60 1.57 1.57 1.63 1.72 1.71 1.73 1.85 1.81 1.68 1.76 1.95 2.13